When you browse on this site, cookies collect data to enhance your experience and personalize the content and advertising you see.
Visit our Privacy Policy to learn more. By continuing to use the site, you agree to this use of cookies and data.
  • In Switzerland
  • List of Countries
  • For 7 days
  • Water Temperature
  • Weather Map
  • Weather Widgets
  • user-avatar
    Login

    Hourly Weather Kanye

    Today, 8 April, Wednesday

    Time Temperature Precipitation Wind Pressure Humidity
    00:00 +16°C° 0 mm 3 mps 651 mmHg 32%
    01:00 +15°C° 0 mm 2 mps 651 mmHg 33%
    02:00 +15°C° 0 mm 2 mps 651 mmHg 34%
    03:00 +15°C° 0 mm 2 mps 650 mmHg 34%
    04:00 +14°C° 0 mm 2 mps 650 mmHg 34%
    05:00 +14°C° 0 mm 2 mps 650 mmHg 33%
    06:00 +16°C° 0 mm 2 mps 651 mmHg 31%
    07:00 +17°C° 0 mm 2 mps 652 mmHg 28%
    08:00 +19°C° 0 mm 2 mps 653 mmHg 25%
    09:00 +21°C° 0 mm 3 mps 653 mmHg 29%
    10:00 +23°C° 0 mm 5 mps 654 mmHg 32%
    11:00 +26°C° 0 mm 6 mps 654 mmHg 36%
    12:00 +28°C° 0 mm 6 mps 654 mmHg 32%
    13:00 +29°C° 0 mm 5 mps 654 mmHg 29%
    14:00 +30°C° 0 mm 5 mps 653 mmHg 25%
    15:00 +30°C° 0 mm 4 mps 653 mmHg 25%
    16:00 +30°C° 0 mm 3 mps 653 mmHg 25%
    17:00 +29°C° 0 mm 3 mps 652 mmHg 25%
    18:00 +27°C° 0 mm 3 mps 652 mmHg 31%
    19:00 +26°C° 0 mm 3 mps 653 mmHg 38%
    20:00 +24°C° 0 mm 3 mps 653 mmHg 44%
    21:00 +22°C° 0.2 mm 4 mps 653 mmHg 52%
    22:00 +21°C° 0.2 mm 4 mps 653 mmHg 59%
    23:00 +20°C° 0.2 mm 4 mps 653 mmHg 67%

    Tomorrow, 9 April, Thursday

    Time Temperature Precipitation Wind Pressure Humidity
    00:00 +19°C° 0 mm 5 mps 653 mmHg 71%
    01:00 +17°C° 0 mm 6 mps 653 mmHg 75%
    02:00 +16°C° 0 mm 7 mps 653 mmHg 78%
    03:00 +16°C° 0 mm 7 mps 653 mmHg 79%
    04:00 +15°C° 0 mm 8 mps 654 mmHg 79%
    05:00 +15°C° 0 mm 8 mps 654 mmHg 79%
    06:00 +15°C° 0 mm 8 mps 654 mmHg 78%
    07:00 +15°C° 0 mm 8 mps 655 mmHg 77%
    08:00 +16°C° 0 mm 8 mps 655 mmHg 76%
    09:00 +17°C° 0 mm 9 mps 655 mmHg 70%
    10:00 +18°C° 0 mm 9 mps 656 mmHg 65%
    11:00 +19°C° 0 mm 9 mps 656 mmHg 60%
    12:00 +22°C° 0 mm 8 mps 656 mmHg 55%
    13:00 +23°C° 0 mm 8 mps 656 mmHg 51%
    14:00 +26°C° 0 mm 7 mps 655 mmHg 46%
    15:00 +26°C° 0 mm 7 mps 655 mmHg 45%
    16:00 +26°C° 0 mm 6 mps 655 mmHg 44%
    17:00 +24°C° 0 mm 6 mps 654 mmHg 44%
    18:00 +23°C° 0 mm 5 mps 654 mmHg 49%
    19:00 +21°C° 0 mm 5 mps 654 mmHg 54%
    20:00 +19°C° 0 mm 4 mps 654 mmHg 59%
    21:00 +19°C° 0 mm 4 mps 654 mmHg 60%
    22:00 +19°C° 0 mm 4 mps 654 mmHg 61%
    23:00 +18°C° 0 mm 4 mps 655 mmHg 62%

    Day after tomorrow, 10 April, Friday

    Time Temperature Precipitation Wind Pressure Humidity
    00:00 +17°C° 0 mm 5 mps 655 mmHg 66%
    01:00 +16°C° 0 mm 5 mps 655 mmHg 69%
    02:00 +16°C° 0 mm 5 mps 655 mmHg 72%
    03:00 +15°C° 0 mm 5 mps 655 mmHg 75%
    04:00 +15°C° 0 mm 5 mps 655 mmHg 78%
    05:00 +14°C° 0 mm 6 mps 655 mmHg 80%
    06:00 +14°C° 0 mm 6 mps 655 mmHg 79%
    07:00 +15°C° 0 mm 7 mps 655 mmHg 78%
    08:00 +15°C° 0 mm 7 mps 655 mmHg 77%
    09:00 +17°C° 0 mm 7 mps 656 mmHg 67%
    10:00 +21°C° 0 mm 7 mps 656 mmHg 57%
    11:00 +23°C° 0 mm 7 mps 657 mmHg 47%
    12:00 +26°C° 0 mm 6 mps 656 mmHg 41%
    13:00 +27°C° 0 mm 5 mps 656 mmHg 35%
    14:00 +29°C° 0 mm 4 mps 655 mmHg 29%
    15:00 +29°C° 0 mm 4 mps 655 mmHg 28%
    16:00 +29°C° 0 mm 4 mps 655 mmHg 27%
    17:00 +28°C° 0 mm 3 mps 654 mmHg 26%
    18:00 +26°C° 0 mm 3 mps 654 mmHg 30%
    19:00 +24°C° 0 mm 3 mps 653 mmHg 34%
    20:00 +21°C° 0 mm 3 mps 653 mmHg 39%
    21:00 +21°C° 0 mm 2 mps 653 mmHg 41%
    22:00 +20°C° 0 mm 2 mps 653 mmHg 43%
    23:00 +19°C° 0 mm 2 mps 653 mmHg 46%

    11 April, Saturday

    Time Temperature Precipitation Wind Pressure Humidity
    00:00 +19°C° 0 mm 2 mps 653 mmHg 48%
    01:00 +18°C° 0 mm 2 mps 652 mmHg 49%
    02:00 +18°C° 0 mm 2 mps 652 mmHg 51%
    03:00 +18°C° 0 mm 2 mps 652 mmHg 54%
    04:00 +17°C° 0 mm 2 mps 652 mmHg 56%
    05:00 +17°C° 0 mm 2 mps 652 mmHg 59%
    06:00 +18°C° 0 mm 3 mps 653 mmHg 57%
    07:00 +19°C° 0 mm 3 mps 653 mmHg 55%
    08:00 +19°C° 0 mm 4 mps 653 mmHg 53%
    09:00 +22°C° 0 mm 4 mps 654 mmHg 46%
    10:00 +26°C° 0 mm 4 mps 655 mmHg 39%
    11:00 +28°C° 0 mm 4 mps 655 mmHg 32%
    12:00 +29°C° 0 mm 3 mps 655 mmHg 29%
    13:00 +30°C° 0 mm 3 mps 654 mmHg 27%
    14:00 +31°C° 0 mm 2 mps 653 mmHg 25%
    15:00 +30°C° 0 mm 2 mps 653 mmHg 26%
    16:00 +30°C° 0 mm 2 mps 652 mmHg 27%
    17:00 +29°C° 0 mm 1 mps 652 mmHg 28%
    18:00 +28°C° 0 mm 1 mps 652 mmHg 31%
    19:00 +26°C° 0 mm 1 mps 652 mmHg 33%
    20:00 +25°C° 0 mm 1 mps 652 mmHg 35%
    21:00 +25°C° 0 mm 1 mps 652 mmHg 36%
    22:00 +24°C° 0 mm 1 mps 652 mmHg 37%
    23:00 +24°C° 0 mm 1 mps 652 mmHg 38%

    12 April, Sunday

    Time Temperature Precipitation Wind Pressure Humidity
    00:00 +23°C° 0 mm 1 mps 652 mmHg 40%
    01:00 +22°C° 0 mm 1 mps 651 mmHg 43%
    02:00 +19°C° 0 mm 0 mps 651 mmHg 45%
    03:00 +21°C° 0 mm 1 mps 650 mmHg 45%
    04:00 +20°C° 0 mm 1 mps 650 mmHg 46%
    05:00 +20°C° 0 mm 1 mps 650 mmHg 46%
    06:00 +21°C° 0 mm 1 mps 651 mmHg 43%
    07:00 +23°C° 0 mm 2 mps 651 mmHg 41%
    08:00 +24°C° 0 mm 2 mps 652 mmHg 38%
    09:00 +26°C° 0 mm 3 mps 653 mmHg 34%
    10:00 +29°C° 0 mm 4 mps 653 mmHg 30%
    11:00 +32°C° 0 mm 5 mps 654 mmHg 26%
    12:00 +30°C° 0.1 mm 5 mps 653 mmHg 30%
    13:00 +29°C° 0.1 mm 5 mps 652 mmHg 33%
    14:00 +28°C° 0.1 mm 5 mps 651 mmHg 37%
    15:00 +27°C° 0.4 mm 5 mps 651 mmHg 45%
    16:00 +25°C° 0.4 mm 4 mps 650 mmHg 52%
    17:00 +22°C° 0.4 mm 3 mps 650 mmHg 60%
    18:00 +23°C° 0 mm 2 mps 650 mmHg 62%
    19:00 +21°C° 0 mm 2 mps 650 mmHg 64%
    20:00 +22°C° 0 mm 1 mps 650 mmHg 65%
    21:00 +21°C° 0 mm 1 mps 650 mmHg 64%
    22:00 +21°C° 0 mm 1 mps 651 mmHg 63%
    23:00 +20°C° 0 mm 2 mps 651 mmHg 62%

    13 April, Monday

    Time Temperature Precipitation Wind Pressure Humidity
    00:00 +20°C° 0 mm 2 mps 650 mmHg 60%
    01:00 +19°C° 0 mm 2 mps 650 mmHg 58%
    02:00 +19°C° 0 mm 3 mps 650 mmHg 55%
    03:00 +19°C° 0 mm 2 mps 650 mmHg 52%
    04:00 +19°C° 0 mm 2 mps 650 mmHg 50%
    05:00 +20°C° 0 mm 1 mps 650 mmHg 47%
    06:00 +20°C° 0 mm 2 mps 650 mmHg 44%
    07:00 +20°C° 0 mm 2 mps 651 mmHg 42%
    08:00 +21°C° 0 mm 2 mps 651 mmHg 39%
    09:00 +24°C° 0 mm 3 mps 652 mmHg 36%
    10:00 +26°C° 0 mm 4 mps 652 mmHg 33%
    11:00 +28°C° 0 mm 5 mps 653 mmHg 30%
    12:00 +25°C° 0.4 mm 4 mps 652 mmHg 42%
    13:00 +22°C° 0.4 mm 3 mps 651 mmHg 53%
    14:00 +20°C° 0.4 mm 2 mps 650 mmHg 65%
    15:00 +20°C° 0.7 mm 2 mps 649 mmHg 67%
    16:00 +20°C° 0.7 mm 2 mps 649 mmHg 70%
    17:00 +19°C° 0.7 mm 2 mps 649 mmHg 72%
    18:00 +19°C° 0.2 mm 2 mps 649 mmHg 74%
    19:00 +18°C° 0.2 mm 2 mps 649 mmHg 77%
    20:00 +19°C° 0.2 mm 1 mps 649 mmHg 80%
    21:00 +19°C° 1 mm 1 mps 649 mmHg 83%
    22:00 +18°C° 1 mm 1 mps 649 mmHg 87%
    23:00 +16°C° 1 mm 0 mps 649 mmHg 90%
    Show more